Location: Borojevi?i
(45.0486°N, 16.2297°E)
Time: 09:17:25
(UTC+00:00)

Cosmos 407 Rocket - Pass Details

Date: 08 August 2020
Orbit: 744 x 786 km, 74.0° (Epoch: 20 September)

Event Time Altitude Azimuth Distance (km) Brightness Sun altitude
Rises 20:17:33 0° 216° (SW) 3,261 6.6 -18.8°
Reaches altitude 10° 20:20:01 10° 221° (SW) 2,334 5.9 -19.1°
Maximum altitude 20:25:09 49° 296° (WNW) 1,006 4.5 -19.7°
Drops below altitude 10° 20:30:17 10° 11° (NNE) 2,328 6.5 -20.2°
Sets 20:32:45 0° 17° (NNE) 3,252 7.2 -20.5°
